Wind_Speed
6 5 6 6 7 7 8 9 9 8 7 5 3 3 3 3 3 3 9 10 9 9 9 6 3 6 3 1 2 5 8 6 6 12 13 15 18 17 12 7 4 10 19 22 21
7 6 6 7 8 9 10 10 9 7 6 4 3 2 3 4 3 5 8 9 10 9 10 8 7 8 8 9 5 3 6 5 8 16 20 23 21 19 23 23 14 11 8 19 20
7 7 7 7 9 11 11 10 9 6 5 4 3 1 2 4 3 6 7 9 10 9 9 8 7 8 8 7 9 8 11 9 14 19 24 27 25 26 27 29 22 17 13 17 15
8 8 8 9 10 11 10 9 7 5 5 4 2 1 1 1 1 6 8 10 10 9 8 9 7 7 3 3 6 14 7 7 11 18 16 17 17 17 19 26 30 28 22 20 17
8 9 9 9 9 10 8 7 5 5 5 3 2 2 2 3 4 7 9 10 9 7 8 7 8 7 5 4 6 6 11 10 9 8 14 22 18 20 15 14 13 14 22 31 27
8 8 9 8 8 8 6 5 3 4 4 3 3 3 4 5 5 8 9 9 8 9 9 8 8 9 8 5 9 8 7 8 11 8 10 20 19 11 16 10 6 12 18 16 21
10 8 8 6 7 7 4 2 2 3 3 4 3 3 5 5 6 7 9 8 9 8 8 8 8 10 11 7 11 10 9 13 6 5 13 21 13 9 13 5 11 14 12 13 12
12 9 7 6 6 6 4 2 1 2 3 4 4 5 5 5 6 10 9 8 8 6 6 8 7 10 11 11 17 5 9 14 12 14 14 17 14 13 18 18 16 17 17 17 16
13 11 9 6 7 5 3 1 1 1 3 5 6 6 6 6 7 9 7 8 10 8 4 7 7 6 10 14 7 0 13 12 11 8 9 17 11 17 21 23 24 24 24 28 26
13 12 11 8 7 5 4 2 2 3 5 6 6 6 7 7 8 12 7 7 6 6 4 11 4 5 7 14 9 11 17 18 22 14 15 12 13 16 21 14 15 23 25 19 26
16 14 12 10 9 5 4 3 2 4 5 7 5 9 8 6 9 12 6 7 7 7 7 9 9 8 8 13 9 14 15 18 15 11 12 11 14 18 16 10 18 25 25 22 20
18 16 14 13 10 8 5 5 5 5 7 7 11 10 10 9 10 11 4 8 9 9 4 7 12 10 11 10 10 11 12 15 20 8 13 9 19 16 19 17 29 34 29 23 19
21 19 17 16 13 11 7 6 7 8 11 8 10 11 9 8 8 11 8 9 9 7 3 10 10 9 14 7 11 13 9 17 13 10 5 4 5 10 17 20 29 28 26 25 19
25 22 20 18 17 14 10 8 8 6 7 9 8 8 7 5 5 6 5 7 5 3 7 7 8 10 10 6 13 12 12 6 9 11 3 8 4 13 14 29 31 26 25 22 15
28 26 23 21 19 16 14 11 9 7 2 4 13 9 6 5 2 2 4 4 5 8 6 4 6 11 6 7 10 11 17 6 8 8 8 9 5 7 16 28 29 27 26 20 11
31 30 27 24 21 17 15 13 10 7 8 10 8 11 10 7 5 2 1 1 2 3 2 5 6 4 8 7 6 15 9 2 2 3 2 7 5 6 20 25 29 28 24 19 9
34 34 31 27 22 18 16 15 13 9 5 12 13 14 10 10 5 3 4 1 4 4 2 2 8 8 4 5 6 8 12 5 4 2 4 9 6 7 18 23 24 28 22 17 8
37 37 36 29 25 21 20 21 13 11 19 8 12 14 12 10 9 5 4 3 6 5 5 2 5 7 6 6 3 8 11 3 4 0 5 5 5 8 15 26 19 23 20 17 10
42 39 41 30 29 27 26 29 25 23 13 24 14 16 16 14 10 9 8 7 9 6 4 5 4 4 3 4 3 2 4 6 1 4 3 1 1 4 20 18 17 20 13 15 13
46 44 43 36 32 31 35 41 33 21 11 22 23 13 17 17 16 11 9 7 9 5 4 5 3 3 5 2 2 4 4 2 2 2 3 2 2 11 19 20 20 16 10 11 12
47 49 45 40 38 39 49 48 43 33 16 18 18 17 12 16 14 15 8 8 7 5 4 5 6 4 5 4 3 2 3 2 2 2 3 2 4 11 16 17 18 13 11 11 10
33 52 50 45 45 51 54 50 42 39 26 24 21 21 18 16 19 17 14 13 7 6 4 5 4 4 7 7 7 7 7 4 3 3 3 4 4 9 14 15 14 12 10 8 10
45 45 50 45 52 57 53 50 44 43 31 25 25 23 25 24 19 22 21 17 13 9 4 5 6 4 3 9 8 7 7 5 6 4 5 1 4 7 13 16 12 9 5 5 8
42 49 33 48 58 58 55 53 51 47 39 35 31 28 27 26 25 16 23 20 17 12 9 6 9 9 9 6 3 8 8 9 9 6 4 5 4 6 13 15 9 7 6 4 3
43 51 49 48 61 53 47 48 54 49 44 32 37 36 34 31 29 27 21 21 20 15 13 10 7 9 12 13 13 17 19 18 21 18 10 11 5 8 13 12 6 3 3 4 5
38 50 52 54 45 64 42 46 48 52 43 46 40 40 34 33 32 28 26 23 19 18 17 14 7 7 7 5 7 11 14 17 20 20 22 20 16 10 8 9 6 3 1 3 5
29 49 46 50 42 43 53 59 49 41 46 43 46 38 38 35 26 23 16 18 19 19 16 15 10 5 4 4 6 13 6 11 13 17 14 21 13 9 7 8 5 6 5 4 5
Wind_Direction
271 278 293 303 308 307 304 310 311 312 310 307 306 316 315 315 5 353 33 26 19 10 10 344 6 16 354 351 279 252 237 271 333 320 287 261 262 249 255 219 298 293 263 259 270
279 290 300 305 307 302 301 303 300 304 293 293 295 319 297 295 320 356 27 14 9 2 6 358 17 13 352 3 348 294 272 239 272 300 286 275 269 263 248 243 243 238 264 261 280
277 283 292 305 300 304 303 296 287 287 284 273 268 297 290 280 342 21 11 1 357 358 353 1 6 21 6 21 350 334 305 281 249 283 282 285 279 264 257 248 252 248 241 278 276
290 293 304 307 310 305 293 284 278 282 263 243 251 299 259 290 37 360 353 352 356 353 349 13 357 10 18 5 314 302 321 287 299 299 319 331 312 289 270 264 254 252 226 254 269
282 294 300 305 309 306 305 285 275 256 238 220 215 224 270 284 331 349 341 345 348 351 13 19 14 9 341 262 302 334 350 340 324 353 348 340 340 327 341 300 282 274 254 238 250
262 280 295 302 315 326 313 290 257 239 220 202 201 222 254 310 318 333 333 332 337 1 13 23 28 23 18 31 47 27 17 348 351 353 321 330 338 335 359 325 263 295 297 274 256
268 272 283 299 321 331 320 307 244 230 208 193 200 226 260 304 324 336 324 334 341 1 15 28 30 36 42 52 5 336 336 15 342 319 309 325 352 357 322 311 260 244 252 248 257
270 272 266 286 314 333 341 327 257 211 211 199 208 235 258 281 327 328 322 337 6 14 26 42 58 51 29 16 4 25 338 344 350 315 300 323 331 295 286 289 274 259 261 255 241
261 269 260 267 302 334 337 1 291 236 221 218 221 242 269 276 333 331 326 334 352 351 40 54 71 44 23 346 344 117 346 347 341 291 316 321 331 311 297 276 274 272 277 268 245
245 259 261 258 277 307 323 351 349 247 231 230 240 245 258 281 332 324 321 325 344 7 43 29 44 356 351 316 333 341 340 329 326 320 320 319 312 305 307 306 325 320 321 302 255
250 249 249 257 260 276 297 307 336 263 243 260 263 240 270 294 302 305 310 335 328 354 5 325 322 312 302 332 3 335 324 313 300 333 307 330 298 296 286 289 314 324 321 309 245
244 245 248 243 249 263 273 293 279 276 279 265 255 256 261 272 299 305 318 311 312 302 256 268 284 279 296 332 324 315 311 323 321 310 270 303 305 278 276 301 329 328 320 307 278
237 241 238 241 242 252 261 270 277 287 281 263 246 247 252 265 284 288 297 301 303 301 241 264 286 278 298 304 314 326 309 331 343 11 22 284 253 256 293 332 339 335 317 307 294
241 238 239 235 237 241 256 266 265 265 266 261 228 232 248 247 269 277 286 289 275 295 280 269 240 264 300 300 314 328 326 317 335 333 331 345 287 274 312 331 347 345 332 329 317
237 239 238 237 236 238 243 250 249 222 304 203 216 218 202 227 256 254 306 303 270 239 261 243 264 295 302 328 324 329 342 311 309 305 301 317 318 315 336 350 352 348 354 341 332
240 237 237 235 235 234 238 229 221 201 250 203 198 208 213 211 224 284 328 22 8 321 262 247 302 320 322 326 333 347 353 88 359 280 301 351 338 287 338 345 350 351 358 2 20
239 238 234 234 232 227 226 219 190 213 216 218 208 206 202 203 227 248 308 351 342 299 238 295 268 287 317 350 356 335 25 358 30 14 232 352 330 326 337 343 351 358 7 18 60
239 236 234 230 230 227 216 208 208 220 213 213 209 200 200 211 232 221 216 250 275 305 270 220 220 263 314 341 19 34 19 57 186 300 281 357 358 342 342 345 355 2 10 26 45
239 235 232 224 223 222 216 212 213 206 225 222 196 199 200 210 216 215 209 229 258 277 229 211 232 248 282 336 14 94 53 41 54 282 304 205 112 307 345 359 358 1 17 46 62
241 236 230 223 225 221 222 223 218 203 217 220 230 217 218 217 208 205 209 223 233 258 256 223 227 242 311 274 106 62 63 75 46 46 330 331 322 337 357 13 12 5 33 45 60
237 238 229 221 222 224 222 223 223 210 227 229 222 213 207 215 209 205 209 224 229 257 248 222 213 182 265 234 251 245 169 183 263 209 177 294 282 331 345 12 25 19 21 38 49
247 236 231 219 218 226 229 223 224 218 233 232 225 220 213 208 209 211 223 226 214 229 236 188 214 225 260 242 277 254 232 234 201 192 242 255 272 309 347 351 14 23 14 46 49
249 238 233 222 223 225 231 231 226 224 221 230 226 218 216 215 212 216 224 233 229 230 224 194 198 174 269 246 255 251 229 253 237 238 243 200 263 306 337 350 358 18 41 56 56
254 246 207 219 225 227 227 229 226 225 227 231 227 226 221 216 219 217 221 227 225 223 227 223 223 227 206 173 224 243 251 270 254 230 241 221 203 302 322 337 341 20 82 133 102
228 236 240 215 222 220 220 227 227 227 222 226 226 231 224 213 217 219 217 217 217 214 222 225 235 236 255 260 257 256 256 244 252 255 239 185 211 283 297 326 312 341 84 77 106
240 228 236 229 225 229 212 218 224 223 220 221 222 224 219 225 229 225 224 220 218 222 224 225 230 244 285 259 256 269 263 254 249 248 243 234 253 248 275 309 281 250 203 138 135
230 233 237 235 213 230 223 223 220 217 219 226 229 226 225 227 227 232 234 232 231 230 222 217 218 226 221 213 285 285 244 240 245 256 251 234 232 255 259 295 273 237 211 189 171
Height
3161 3160 3160 3159 3158 3157 3156 3154 3153 3152 3151 3150 3149 3148 3147 3147 3146 3145 3143 3144 3143 3142 3142 3141 3140 3138 3138 3138 3137 3137 3138 3138 3139 3138 3135 3135 3133 3134 3133 3134 3134 3134 3134 3135 3133
3160 3159 3158 3158 3157 3156 3154 3152 3152 3150 3150 3148 3148 3146 3146 3146 3146 3144 3144 3143 3143 3142 3141 3139 3138 3137 3136 3136 3136 3136 3136 3136 3136 3135 3132 3131 3131 3130 3129 3129 3129 3131 3130 3128 3129
3159 3159 3157 3156 3155 3153 3151 3150 3150 3149 3147 3147 3147 3146 3145 3145 3145 3143 3143 3143 3143 3141 3140 3139 3136 3136 3136 3136 3136 3136 3135 3134 3134 3132 3130 3128 3127 3126 3125 3124 3125 3126 3127 3124 3124
3157 3157 3156 3154 3152 3151 3150 3149 3147 3146 3146 3146 3145 3145 3145 3145 3147 3143 3143 3143 3142 3141 3140 3138 3136 3135 3136 3136 3136 3135 3133 3132 3131 3129 3128 3125 3122 3120 3120 3119 3121 3122 3126 3123 3123
3155 3155 3154 3153 3151 3149 3147 3146 3144 3144 3145 3144 3144 3144 3144 3144 3144 3143 3143 3142 3142 3141 3139 3137 3136 3135 3135 3134 3134 3133 3131 3130 3129 3128 3125 3123 3122 3119 3117 3114 3116 3117 3118 3119 3119
3153 3153 3153 3151 3149 3146 3145 3144 3142 3143 3143 3143 3143 3143 3143 3144 3143 3142 3142 3142 3141 3139 3138 3137 3136 3135 3134 3133 3133 3132 3131 3130 3128 3125 3124 3123 3121 3118 3115 3112 3114 3115 3115 3115 3115
3152 3151 3150 3149 3147 3146 3144 3142 3142 3142 3141 3142 3142 3142 3142 3143 3142 3142 3141 3141 3139 3138 3137 3136 3135 3135 3134 3133 3133 3132 3131 3128 3125 3123 3123 3121 3121 3118 3115 3112 3110 3110 3109 3108 3109
3151 3149 3148 3147 3146 3144 3142 3141 3141 3140 3140 3140 3141 3141 3141 3140 3140 3140 3140 3138 3137 3137 3136 3135 3134 3134 3133 3133 3130 3128 3129 3126 3124 3122 3122 3120 3118 3116 3113 3111 3110 3109 3108 3107 3106
3147 3148 3146 3145 3145 3143 3142 3140 3139 3138 3139 3139 3140 3140 3140 3139 3139 3139 3138 3137 3136 3135 3135 3134 3134 3134 3133 3131 3131 3130 3128 3125 3124 3122 3121 3118 3115 3113 3110 3107 3105 3105 3106 3103 3103
3143 3144 3144 3143 3143 3142 3141 3139 3137 3138 3138 3138 3138 3141 3138 3137 3137 3137 3137 3136 3135 3134 3134 3133 3133 3132 3131 3131 3129 3127 3125 3124 3123 3122 3119 3116 3114 3109 3106 3105 3104 3101 3098 3096 3095
3140 3140 3140 3141 3142 3140 3140 3139 3139 3139 3136 3137 3137 3136 3136 3137 3136 3135 3134 3134 3133 3133 3132 3132 3132 3130 3130 3129 3128 3126 3124 3122 3120 3119 3116 3115 3111 3107 3104 3103 3101 3098 3093 3090 3088
3136 3136 3137 3138 3139 3139 3137 3137 3135 3137 3135 3133 3134 3134 3134 3134 3134 3132 3132 3133 3132 3131 3131 3132 3130 3130 3129 3128 3126 3124 3121 3119 3117 3114 3115 3113 3110 3105 3102 3102 3098 3090 3084 3081 3081
3130 3132 3132 3134 3135 3136 3135 3135 3133 3132 3132 3131 3131 3131 3132 3133 3132 3130 3131 3130 3129 3128 3128 3128 3129 3128 3128 3126 3123 3122 3119 3117 3117 3114 3112 3111 3108 3104 3101 3100 3095 3088 3081 3076 3072
3126 3127 3129 3129 3133 3132 3134 3132 3131 3130 3130 3129 3128 3128 3129 3129 3130 3128 3128 3129 3127 3127 3127 3127 3126 3127 3126 3124 3122 3119 3118 3116 3114 3114 3112 3111 3108 3104 3101 3097 3092 3084 3078 3072 3068
3119 3121 3124 3125 3126 3129 3131 3130 3129 3130 3130 3125 3124 3125 3127 3128 3128 3127 3127 3125 3125 3125 3126 3126 3125 3124 3123 3122 3120 3118 3114 3113 3112 3112 3112 3110 3107 3102 3100 3096 3089 3082 3075 3069 3064
3112 3114 3116 3120 3122 3125 3126 3126 3128 3131 3124 3120 3120 3121 3123 3124 3125 3125 3125 3124 3123 3123 3123 3123 3123 3122 3122 3120 3118 3116 3113 3110 3110 3111 3111 3109 3107 3103 3100 3094 3088 3082 3075 3068 3065
3103 3106 3110 3112 3117 3119 3120 3123 3125 3122 3119 3116 3116 3118 3120 3121 3122 3122 3122 3121 3122 3122 3121 3120 3120 3121 3120 3118 3116 3116 3112 3111 3114 3113 3112 3108 3106 3104 3100 3094 3088 3081 3076 3071 3068
3093 3096 3101 3107 3110 3114 3114 3117 3114 3110 3112 3112 3113 3115 3117 3118 3120 3120 3120 3120 3120 3120 3119 3118 3119 3118 3118 3117 3116 3113 3114 3114 3122 3120 3111 3106 3107 3106 3100 3094 3088 3084 3079 3075 3073
3081 3086 3091 3103 3102 3105 3107 3104 3100 3104 3106 3108 3110 3112 3113 3114 3117 3117 3118 3117 3117 3118 3119 3117 3117 3116 3116 3115 3116 3114 3113 3115 3114 3113 3112 3108 3108 3105 3101 3097 3091 3086 3083 3080 3079
3070 3072 3079 3092 3095 3096 3094 3090 3094 3100 3101 3103 3104 3107 3107 3110 3113 3113 3115 3115 3115 3115 3114 3114 3115 3114 3115 3114 3114 3113 3114 3114 3113 3118 3115 3108 3106 3104 3101 3097 3092 3088 3085 3083 3081
3056 3057 3070 3079 3083 3084 3073 3077 3086 3094 3097 3099 3101 3102 3103 3105 3109 3110 3111 3112 3112 3112 3112 3112 3113 3115 3114 3113 3112 3113 3112 3112 3112 3112 3114 3112 3106 3103 3101 3098 3095 3090 3087 3086 3084
3037 3042 3052 3062 3066 3064 3062 3070 3082 3087 3090 3092 3094 3097 3100 3101 3104 3107 3107 3108 3109 3110 3110 3109 3110 3111 3112 3111 3111 3111 3110 3111 3110 3111 3110 3109 3105 3102 3101 3098 3097 3093 3090 3089 3087
3020 3029 3036 3045 3045 3048 3056 3064 3073 3078 3081 3085 3089 3091 3093 3096 3101 3102 3102 3105 3106 3107 3107 3107 3107 3108 3109 3111 3109 3108 3108 3109 3109 3108 3106 3107 3104 3100 3099 3099 3096 3094 3091 3091 3091
3014 3014 3020 3029 3031 3037 3046 3052 3060 3066 3073 3077 3082 3085 3088 3091 3093 3095 3098 3101 3102 3103 3104 3105 3104 3103 3103 3104 3105 3106 3105 3105 3106 3106 3104 3102 3101 3099 3098 3098 3097 3095 3093 3093 3093
3000 2995 3006 3012 3017 3024 3034 3041 3048 3055 3063 3069 3073 3074 3080 3084 3087 3089 3093 3095 3097 3099 3100 3102 3101 3100 3100 3100 3100 3101 3101 3102 3101 3102 3101 3100 3099 3098 3097 3097 3096 3095 3094 3094 3093
2992 2991 2997 3003 3014 3020 3026 3027 3037 3046 3052 3057 3062 3068 3073 3076 3080 3083 3087 3090 3092 3095 3096 3098 3098 3098 3098 3096 3096 3095 3095 3095 3095 3096 3096 3096 3095 3096 3095 3095 3095 3094 3094 3094 3094
2980 2985 2988 2993 2997 3007 3007 3016 3027 3039 3043 3050 3058 3064 3067 3070 3077 3081 3084 3086 3088 3090 3092 3094 3095 3095 3094 3093 3093 3092 3088 3088 3089 3090 3091 3090 3092 3092 3093 3093 3093 3093 3093 3093 3093